Time,TemperatureF,DewpointF,PressureIn,WindDirection,WindDirectionDegrees,WindSpeedMPH,WindSpeedGustMPH,Humidity,HourlyPrecipIn,Conditions,Clouds,dailyrainin,SolarRadiationWatts/m^2,SoftwareType,DateUTC
2013-02-03 00:00:00,14.4,10.2,29.83,NNW,346,0.0,0.0,83,0.00,,OVC043,0.00,0.00,VWS V14.01,2013-02-03 05:00:00,
2013-02-03 00:01:00,14.4,10.2,29.83,NNW,346,0.0,0.0,83,0.00,,OVC043,0.00,0.00,VWS V14.01,2013-02-03 05:01:00,
2013-02-03 00:02:00,14.4,10.2,29.83,NNW,346,0.0,0.0,83,0.00,,OVC043,0.00,0.00,VWS V14.01,2013-02-03 05:02:00,
2013-02-03 00:07:00,14.3,10.1,29.83,NNW,346,0.0,0.0,83,0.00,,OVC043,0.00,0.00,VWS V14.01,2013-02-03 05:07:00,
2013-02-03 00:12:00,14.3,10.1,29.83,NNW,346,0.0,0.0,83,0.00,,OVC043,0.00,0.00,VWS V14.01,2013-02-03 05:12:00,
2013-02-03 00:17:00,14.3,10.1,29.83,NNW,346,0.0,0.0,83,0.00,,OVC043,0.00,0.00,VWS V14.01,2013-02-03 05:17:00,
2013-02-03 00:22:00,14.1,9.9,29.83,NNW,346,0.0,0.0,83,0.00,,OVC041,0.00,0.00,VWS V14.01,2013-02-03 05:22:00,
2013-02-03 00:27:00,14.1,9.9,29.83,NNW,346,0.0,0.0,83,0.00,,OVC041,0.00,0.00,VWS V14.01,2013-02-03 05:27:00,
2013-02-03 00:30:00,14.4,10.2,29.83,NNW,346,0.0,0.0,83,0.00,,OVC017,0.00,0.00,VWS V14.01,2013-02-03 05:30:00,
2013-02-03 00:32:00,14.1,9.9,29.83,NNW,346,0.0,0.0,83,0.00,,OVC041,0.00,0.00,VWS V14.01,2013-02-03 05:32:00,
2013-02-03 00:37:00,14.1,9.9,29.83,NNW,346,0.0,0.0,83,0.00,,OVC041,0.00,0.00,VWS V14.01,2013-02-03 05:37:00,
2013-02-03 00:42:00,14.0,9.8,29.83,NNW,346,0.0,0.0,83,0.00,,OVC041,0.00,0.00,VWS V14.01,2013-02-03 05:42:00,
2013-02-03 00:46:00,14.0,9.8,29.83,NNW,346,0.0,0.0,83,0.00,,OVC041,0.00,0.00,VWS V14.01,2013-02-03 05:46:00,
2013-02-03 00:51:00,14.0,9.8,29.83,NNW,346,0.0,0.0,83,0.00,,OVC041,0.00,0.00,VWS V14.01,2013-02-03 05:51:00,
2013-02-03 00:56:00,14.0,9.8,29.83,NNW,346,0.0,0.0,83,0.00,,OVC041,0.00,0.00,VWS V14.01,2013-02-03 05:56:00,
2013-02-03 01:00:00,14.3,10.1,29.83,NNW,346,0.0,0.0,83,0.00,,OVC017,0.00,0.00,VWS V14.01,2013-02-03 06:00:00,
2013-02-03 01:01:00,14.0,9.8,29.82,NNW,346,0.0,0.0,83,0.00,,OVC039,0.00,0.00,VWS V14.01,2013-02-03 06:01:00,
2013-02-03 01:06:00,13.8,9.6,29.82,NNW,346,0.0,0.0,83,0.00,,OVC039,0.00,0.00,VWS V14.01,2013-02-03 06:06:00,
2013-02-03 01:11:00,13.8,9.6,29.82,NNW,346,0.0,0.0,83,0.00,,OVC039,0.00,0.00,VWS V14.01,2013-02-03 06:11:00,
2013-02-03 01:16:00,13.8,9.6,29.82,NNW,346,0.0,0.0,83,0.00,,OVC039,0.00,0.00,VWS V14.01,2013-02-03 06:16:00,
2013-02-03 01:21:00,13.6,9.4,29.82,NNW,346,0.0,0.0,83,0.00,,OVC039,0.00,0.00,VWS V14.01,2013-02-03 06:21:00,
2013-02-03 01:26:00,13.6,9.4,29.82,NNW,346,0.0,0.0,83,0.00,,OVC039,0.00,0.00,VWS V14.01,2013-02-03 06:26:00,
2013-02-03 01:30:00,14.0,9.8,29.83,NNW,346,0.0,0.0,83,0.00,,OVC017,0.00,0.00,VWS V14.01,2013-02-03 06:30:00,
2013-02-03 01:31:00,13.5,9.3,29.81,NNW,346,0.0,0.0,83,0.00,,OVC039,0.00,0.00,VWS V14.01,2013-02-03 06:31:00,
2013-02-03 01:36:00,13.5,9.3,29.81,NNW,346,0.0,0.0,83,0.00,,OVC039,0.00,0.00,VWS V14.01,2013-02-03 06:36:00,
2013-02-03 01:41:00,13.5,9.3,29.81,NNW,346,0.0,0.0,83,0.00,,OVC039,0.00,0.00,VWS V14.01,2013-02-03 06:41:00,
2013-02-03 01:46:00,13.3,9.1,29.81,NNW,346,0.0,0.0,83,0.00,,OVC039,0.00,0.00,VWS V14.01,2013-02-03 06:46:00,
2013-02-03 01:51:00,13.3,9.1,29.81,NNW,346,0.0,0.0,83,0.00,,OVC039,0.00,0.00,VWS V14.01,2013-02-03 06:51:00,
2013-02-03 01:56:00,13.1,8.9,29.81,NNW,346,0.0,0.0,83,0.00,,OVC039,0.00,0.00,VWS V14.01,2013-02-03 06:56:00,
2013-02-03 02:00:00,13.8,9.6,29.82,NNW,346,0.0,0.0,83,0.00,,OVC017,0.00,0.00,VWS V14.01,2013-02-03 07:00:00,
2013-02-03 02:01:00,13.1,8.9,29.81,NNW,346,0.0,0.0,83,0.00,,OVC033,0.00,0.00,VWS V14.01,2013-02-03 07:01:00,
2013-02-03 02:06:00,13.1,8.9,29.81,NNW,346,0.0,0.0,83,0.00,,OVC033,0.00,0.00,VWS V14.01,2013-02-03 07:06:00,
2013-02-03 02:11:00,12.9,9.0,29.81,NNW,346,0.0,0.0,84,0.00,,OVC033,0.00,0.00,VWS V14.01,2013-02-03 07:11:00,
2013-02-03 02:16:00,12.9,9.0,29.79,NNW,346,0.0,0.0,84,0.00,,OVC033,0.00,0.00,VWS V14.01,2013-02-03 07:16:00,
2013-02-03 02:21:00,12.9,9.0,29.79,NNW,346,0.0,0.0,84,0.00,,OVC033,0.00,0.00,VWS V14.01,2013-02-03 07:21:00,
2013-02-03 02:26:00,12.9,9.0,29.79,NNW,346,0.0,0.0,84,0.00,,OVC033,0.00,0.00,VWS V14.01,2013-02-03 07:26:00,
2013-02-03 02:30:00,13.3,9.1,29.81,NNW,346,0.0,0.0,83,0.00,,OVC017,0.00,0.00,VWS V14.01,2013-02-03 07:30:00,
2013-02-03 02:31:00,12.9,9.0,29.80,NNW,346,0.0,0.0,84,0.00,,OVC033,0.00,0.00,VWS V14.01,2013-02-03 07:31:00,
2013-02-03 02:36:00,13.1,9.2,29.80,NNW,346,0.0,0.0,84,0.00,,OVC033,0.00,0.00,VWS V14.01,2013-02-03 07:36:00,
2013-02-03 02:41:00,13.1,9.2,29.80,NNW,346,0.0,0.0,84,0.00,,OVC033,0.00,0.00,VWS V14.01,2013-02-03 07:41:00,
2013-02-03 02:46:00,13.1,9.2,29.79,NNW,346,0.0,0.0,84,0.00,,OVC033,0.00,0.00,VWS V14.01,2013-02-03 07:46:00,
2013-02-03 02:51:00,13.1,9.2,29.79,NNW,346,0.0,0.0,84,0.00,,OVC033,0.00,0.00,VWS V14.01,2013-02-03 07:51:00,
2013-02-03 02:56:00,13.1,9.2,29.79,NNW,346,0.0,0.0,84,0.00,,OVC033,0.00,0.00,VWS V14.01,2013-02-03 07:56:00,
2013-02-03 03:00:00,12.9,9.0,29.79,NNW,346,0.0,0.0,84,0.00,,OVC017,0.00,0.00,VWS V14.01,2013-02-03 08:00:00,
2013-02-03 03:01:00,13.1,9.2,29.79,NNW,346,0.0,0.0,84,0.00,,OVC029,0.00,0.00,VWS V14.01,2013-02-03 08:01:00,
2013-02-03 03:06:00,13.1,9.2,29.79,NNW,346,0.0,0.0,84,0.00,,OVC029,0.00,0.00,VWS V14.01,2013-02-03 08:06:00,
2013-02-03 03:11:00,13.1,9.4,29.79,NNW,346,0.0,0.0,85,0.00,,OVC029,0.00,0.00,VWS V14.01,2013-02-03 08:11:00,
2013-02-03 03:16:00,13.3,9.6,29.79,NNW,346,0.0,0.0,85,0.00,,OVC029,0.00,0.00,VWS V14.01,2013-02-03 08:16:00,
2013-02-03 03:21:00,13.3,9.6,29.79,NNW,346,0.0,0.0,85,0.00,,OVC029,0.00,0.00,VWS V14.01,2013-02-03 08:21:00,
2013-02-03 03:26:00,13.3,9.6,29.79,NNW,346,0.0,0.0,85,0.00,,OVC029,0.00,0.00,VWS V14.01,2013-02-03 08:26:00,
2013-02-03 03:30:00,13.1,9.2,29.79,NNW,346,0.0,0.0,84,0.00,,OVC017,0.00,0.00,VWS V14.01,2013-02-03 08:30:00,
2013-02-03 03:31:00,13.3,9.6,29.79,NNW,346,0.0,0.0,85,0.00,,OVC029,0.00,0.00,VWS V14.01,2013-02-03 08:31:00,
2013-02-03 03:36:00,13.3,9.6,29.79,NNW,346,0.0,0.0,85,0.00,,OVC029,0.00,0.00,VWS V14.01,2013-02-03 08:36:00,
2013-02-03 03:41:00,13.3,9.6,29.79,NNW,346,0.0,0.0,85,0.00,,OVC029,0.00,0.00,VWS V14.01,2013-02-03 08:41:00,
2013-02-03 03:46:00,13.5,9.8,29.78,NNW,346,0.0,0.0,85,0.00,,OVC029,0.00,0.00,VWS V14.01,2013-02-03 08:46:00,
2013-02-03 03:51:00,13.5,9.8,29.78,NNW,346,0.0,0.0,85,0.00,,OVC029,0.00,0.00,VWS V14.01,2013-02-03 08:51:00,
2013-02-03 03:56:00,13.6,9.9,29.78,NNW,346,0.0,0.0,85,0.00,,OVC029,0.00,0.00,VWS V14.01,2013-02-03 08:56:00,
2013-02-03 04:00:00,13.3,9.6,29.79,NNW,346,0.0,0.0,85,0.00,,OVC017,0.00,0.00,VWS V14.01,2013-02-03 09:00:00,
2013-02-03 04:01:00,13.6,9.9,29.77,NNW,346,0.0,0.0,85,0.00,,OVC029,0.00,0.00,VWS V14.01,2013-02-03 09:01:00,
2013-02-03 04:06:00,13.8,10.1,29.77,NNW,346,0.0,0.0,85,0.00,,OVC029,0.00,0.00,VWS V14.01,2013-02-03 09:06:00,
2013-02-03 04:11:00,14.0,10.3,29.77,NNW,346,0.0,0.0,85,0.00,,OVC029,0.00,0.00,VWS V14.01,2013-02-03 09:11:00,
2013-02-03 04:16:00,14.0,10.6,29.76,NNW,346,0.0,0.0,86,0.00,,,0.00,0.00,VWS V14.01,2013-02-03 09:16:00,
2013-02-03 04:21:00,14.1,10.7,29.76,NNW,346,0.0,0.0,86,0.00,,,0.00,0.00,VWS V14.01,2013-02-03 09:21:00,
2013-02-03 04:26:00,14.1,10.7,29.76,NNW,346,0.0,0.0,86,0.00,,,0.00,0.00,VWS V14.01,2013-02-03 09:26:00,
2013-02-03 04:30:00,13.5,9.8,29.78,NNW,346,0.0,0.0,85,0.00,,OVC017,0.00,0.00,VWS V14.01,2013-02-03 09:30:00,
2013-02-03 04:31:00,14.1,10.7,29.76,NNW,346,0.0,0.0,86,0.00,,,0.00,0.00,VWS V14.01,2013-02-03 09:31:00,
2013-02-03 04:36:00,14.1,10.7,29.76,NNW,346,0.0,0.0,86,0.00,,,0.00,0.00,VWS V14.01,2013-02-03 09:36:00,
2013-02-03 04:41:00,14.1,10.7,29.76,NNW,346,0.0,0.0,86,0.00,,,0.00,0.00,VWS V14.01,2013-02-03 09:41:00,
2013-02-03 04:46:00,14.1,10.7,29.76,NNW,346,0.0,0.0,86,0.00,,,0.00,0.00,VWS V14.01,2013-02-03 09:46:00,
2013-02-03 04:51:00,14.1,10.7,29.76,NNW,346,0.0,0.0,86,0.00,,,0.00,0.00,VWS V14.01,2013-02-03 09:51:00,
2013-02-03 04:56:00,14.1,10.7,29.76,NNW,346,0.0,0.0,86,0.00,,,0.00,0.00,VWS V14.01,2013-02-03 09:56:00,
2013-02-03 05:00:00,14.0,10.6,29.76,NNW,346,0.0,0.0,86,0.00,,OVC017,0.00,0.00,VWS V14.01,2013-02-03 10:00:00,
2013-02-03 05:01:00,14.1,10.7,29.75,NNW,346,0.0,0.0,86,0.00,,,0.00,0.00,VWS V14.01,2013-02-03 10:01:00,
2013-02-03 05:06:00,14.1,10.7,29.75,NNW,346,0.0,0.0,86,0.00,,,0.00,0.00,VWS V14.01,2013-02-03 10:06:00,
2013-02-03 05:11:00,14.1,10.7,29.75,NNW,346,0.0,0.0,86,0.00,,,0.00,0.00,VWS V14.01,2013-02-03 10:11:00,
2013-02-03 05:16:00,14.1,10.7,29.75,NNW,346,0.0,0.0,86,0.00,,,0.00,0.00,VWS V14.01,2013-02-03 10:16:00,
2013-02-03 05:21:00,14.1,10.7,29.75,NNW,346,0.0,0.0,86,0.00,,,0.00,0.00,VWS V14.01,2013-02-03 10:21:00,
2013-02-03 05:26:00,14.1,10.7,29.75,NNW,346,0.0,0.0,86,0.00,,,0.00,0.00,VWS V14.01,2013-02-03 10:26:00,
2013-02-03 05:30:00,14.1,10.7,29.76,NNW,346,0.0,0.0,86,0.00,,OVC017,0.00,0.00,VWS V14.01,2013-02-03 10:30:00,
2013-02-03 05:31:00,14.1,10.7,29.75,NNW,346,0.0,0.0,86,0.00,,,0.00,0.00,VWS V14.01,2013-02-03 10:31:00,
2013-02-03 05:36:00,14.1,10.7,29.75,NNW,346,0.0,0.0,86,0.00,,,0.00,0.00,VWS V14.01,2013-02-03 10:36:00,
2013-02-03 05:41:00,14.0,10.6,29.75,SE,135,0.0,0.0,86,0.00,,,0.00,0.00,VWS V14.01,2013-02-03 10:41:00,
2013-02-03 05:46:00,14.0,10.6,29.75,SE,135,0.0,0.0,86,0.00,,,0.00,0.00,VWS V14.01,2013-02-03 10:46:00,
2013-02-03 05:51:00,14.0,10.6,29.75,SE,135,0.0,0.0,86,0.00,,,0.00,0.00,VWS V14.01,2013-02-03 10:51:00,
2013-02-03 05:56:00,13.8,10.4,29.75,SE,134,0.0,0.0,86,0.00,,,0.00,0.00,VWS V14.01,2013-02-03 10:56:00,
2013-02-03 06:00:00,14.1,10.7,29.75,NNW,346,0.0,0.0,86,0.00,,OVC017,0.00,0.00,VWS V14.01,2013-02-03 11:00:00,
2013-02-03 06:01:00,13.8,10.4,29.75,SE,134,0.0,0.0,86,0.00,,,0.00,0.00,VWS V14.01,2013-02-03 11:01:00,
2013-02-03 06:06:00,13.6,9.9,29.75,SSE,160,0.0,0.0,85,0.00,,,0.00,0.00,VWS V14.01,2013-02-03 11:06:00,
2013-02-03 06:11:00,13.6,9.9,29.75,SSE,160,0.0,0.0,85,0.00,,,0.00,0.00,VWS V14.01,2013-02-03 11:11:00,
2013-02-03 06:16:00,13.6,9.9,29.75,SSE,160,0.0,0.0,85,0.00,,,0.00,0.00,VWS V14.01,2013-02-03 11:16:00,
2013-02-03 06:21:00,13.5,9.8,29.75,SSE,160,0.0,0.0,85,0.00,,,0.00,0.00,VWS V14.01,2013-02-03 11:21:00,
2013-02-03 06:26:00,13.5,9.8,29.75,SSE,160,0.0,0.0,85,0.00,,OVC031,0.00,0.00,VWS V14.01,2013-02-03 11:26:00,
2013-02-03 06:30:00,14.0,10.6,29.75,SE,135,0.0,0.0,86,0.00,,OVC017,0.00,0.00,VWS V14.01,2013-02-03 11:30:00,
2013-02-03 06:31:00,13.3,9.6,29.75,SSE,160,0.0,0.0,85,0.00,,OVC031,0.00,0.00,VWS V14.01,2013-02-03 11:31:00,
2013-02-03 06:36:00,13.3,9.6,29.75,SSE,160,0.0,0.0,85,0.00,,OVC031,0.00,0.00,VWS V14.01,2013-02-03 11:36:00,
2013-02-03 06:41:00,13.3,9.6,29.75,SSE,160,0.0,0.0,85,0.00,,OVC031,0.00,0.00,VWS V14.01,2013-02-03 11:41:00,
2013-02-03 06:46:00,13.1,9.4,29.75,SSE,160,0.0,0.0,85,0.00,,OVC031,0.00,0.00,VWS V14.01,2013-02-03 11:46:00,
2013-02-03 06:51:00,13.1,9.4,29.75,SSE,160,0.0,0.0,85,0.00,,OVC031,0.00,0.00,VWS V14.01,2013-02-03 11:51:00,
2013-02-03 06:56:00,12.9,9.2,29.75,SSE,160,0.0,0.0,85,0.00,,OVC031,0.00,0.00,VWS V14.01,2013-02-03 11:56:00,
2013-02-03 07:00:00,13.6,9.9,29.75,SSE,160,0.0,0.0,85,0.00,,OVC017,0.00,0.00,VWS V14.01,2013-02-03 12:00:00,
2013-02-03 07:01:00,12.9,9.2,29.74,SSE,160,0.0,0.0,85,0.00,,OVC031,0.00,0.00,VWS V14.01,2013-02-03 12:01:00,
2013-02-03 07:06:00,12.9,9.2,29.74,SSE,161,0.0,0.0,85,0.00,,OVC031,0.00,0.00,VWS V14.01,2013-02-03 12:06:00,
2013-02-03 07:11:00,12.8,9.1,29.74,SSE,160,0.0,0.0,85,0.00,,OVC031,0.00,0.00,VWS V14.01,2013-02-03 12:11:00,
2013-02-03 07:16:00,12.8,9.1,29.75,SSE,160,0.0,0.0,85,0.00,,OVC031,0.00,0.00,VWS V14.01,2013-02-03 12:16:00,
2013-02-03 07:21:00,12.8,9.1,29.75,SSW,198,0.0,0.0,85,0.00,,OVC031,0.00,0.00,VWS V14.01,2013-02-03 12:21:00,
2013-02-03 07:26:00,12.6,9.0,29.75,WNW,297,0.0,0.0,85,0.00,,OVC031,0.00,0.00,VWS V14.01,2013-02-03 12:26:00,
2013-02-03 07:30:00,13.1,9.4,29.75,SSE,160,0.0,0.0,85,0.00,,OVC017,0.00,0.00,VWS V14.01,2013-02-03 12:30:00,
2013-02-03 07:31:00,12.6,9.0,29.76,WNW,297,0.0,0.0,85,0.00,,OVC031,0.00,0.00,VWS V14.01,2013-02-03 12:31:00,
2013-02-03 07:36:00,12.6,9.0,29.76,WNW,297,0.0,0.0,85,0.00,,OVC031,0.00,0.00,VWS V14.01,2013-02-03 12:36:00,
2013-02-03 07:41:00,12.6,9.0,29.76,NE,51,0.0,0.0,85,0.00,,OVC033,0.00,0.00,VWS V14.01,2013-02-03 12:41:00,
2013-02-03 07:46:00,12.4,8.8,29.76,WNW,290,0.0,0.0,85,0.00,,OVC033,0.00,0.00,VWS V14.01,2013-02-03 12:46:00,
2013-02-03 07:51:00,12.4,8.8,29.76,WNW,290,0.0,0.0,85,0.00,,OVC033,0.00,0.00,VWS V14.01,2013-02-03 12:51:00,
2013-02-03 07:56:00,12.4,8.8,29.76,WNW,290,0.0,0.0,85,0.00,,OVC033,0.00,0.00,VWS V14.01,2013-02-03 12:56:00,
2013-02-03 08:00:00,12.8,9.1,29.75,SSE,160,0.0,0.0,85,0.00,,OVC017,0.00,0.00,VWS V14.01,2013-02-03 13:00:00,
2013-02-03 08:01:00,12.3,8.7,29.76,WNW,288,0.0,0.0,85,0.00,,OVC033,0.00,0.00,VWS V14.01,2013-02-03 13:01:00,
2013-02-03 08:06:00,12.3,8.7,29.76,WNW,288,0.0,0.0,85,0.00,,OVC033,0.00,0.00,VWS V14.01,2013-02-03 13:06:00,
2013-02-03 08:11:00,12.3,8.7,29.76,SW,222,0.0,0.0,85,0.00,,OVC033,0.00,0.00,VWS V14.01,2013-02-03 13:11:00,
2013-02-03 08:16:00,12.1,8.5,29.77,WSW,237,0.0,0.0,85,0.00,,OVC033,0.00,0.00,VWS V14.01,2013-02-03 13:16:00,
2013-02-03 08:21:00,12.1,8.5,29.77,SW,220,0.0,0.0,85,0.00,,OVC033,0.00,0.00,VWS V14.01,2013-02-03 13:21:00,
2013-02-03 08:26:00,12.1,8.5,29.77,WSW,241,0.0,0.0,85,0.00,,,0.00,0.00,VWS V14.01,2013-02-03 13:26:00,
2013-02-03 08:30:00,12.4,8.8,29.76,WNW,290,0.0,0.0,85,0.00,,OVC017,0.00,0.00,VWS V14.01,2013-02-03 13:30:00,
2013-02-03 08:31:00,12.1,8.5,29.77,WSW,241,0.0,0.0,85,0.00,,,0.00,0.00,VWS V14.01,2013-02-03 13:31:00,
2013-02-03 08:36:00,12.1,8.5,29.77,WNW,286,0.0,0.0,85,0.00,,,0.00,0.00,VWS V14.01,2013-02-03 13:36:00,
2013-02-03 08:41:00,12.1,8.5,29.77,WNW,286,0.0,0.0,85,0.00,,,0.00,0.00,VWS V14.01,2013-02-03 13:41:00,
2013-02-03 08:46:00,12.1,8.5,29.77,WNW,286,0.0,0.0,85,0.00,,,0.00,0.00,VWS V14.01,2013-02-03 13:46:00,
2013-02-03 08:51:00,12.3,8.7,29.77,WNW,286,0.0,0.0,85,0.00,,,0.00,0.00,VWS V14.01,2013-02-03 13:51:00,
2013-02-03 08:56:00,12.3,8.7,29.77,WNW,286,0.0,0.0,85,0.00,,,0.00,0.00,VWS V14.01,2013-02-03 13:56:00,
2013-02-03 09:00:00,12.1,8.5,29.77,WSW,237,0.0,0.0,85,0.00,,OVC017,0.00,0.00,VWS V14.01,2013-02-03 14:00:00,
2013-02-03 09:01:00,12.3,8.7,29.77,SSW,200,0.0,0.0,85,0.00,,,0.00,0.00,VWS V14.01,2013-02-03 14:01:00,
2013-02-03 09:06:00,12.4,8.8,29.77,SSW,200,0.0,0.0,85,0.00,,,0.00,5.00,VWS V14.01,2013-02-03 14:06:00,
2013-02-03 09:11:00,12.6,9.0,29.77,WSW,242,0.0,0.0,85,0.00,,,0.00,5.00,VWS V14.01,2013-02-03 14:11:00,
2013-02-03 09:16:00,12.8,9.1,29.77,WSW,255,0.0,0.0,85,0.00,,,0.00,0.00,VWS V14.01,2013-02-03 14:16:00,
2013-02-03 09:21:00,12.8,9.1,29.77,WSW,255,0.0,0.0,85,0.00,,,0.00,0.00,VWS V14.01,2013-02-03 14:21:00,
2013-02-03 09:26:00,12.9,9.2,29.77,WSW,255,0.0,0.0,85,0.00,,,0.00,0.00,VWS V14.01,2013-02-03 14:26:00,
2013-02-03 09:30:00,12.1,8.5,29.77,WNW,286,0.0,0.0,85,0.00,,OVC017,0.00,0.00,VWS V14.01,2013-02-03 14:30:00,
2013-02-03 09:31:00,13.1,9.4,29.77,WSW,241,0.0,0.0,85,0.00,,,0.00,0.00,VWS V14.01,2013-02-03 14:31:00,
2013-02-03 09:36:00,13.1,9.4,29.77,NNW,338,0.0,0.0,85,0.00,,,0.00,0.00,VWS V14.01,2013-02-03 14:36:00,
2013-02-03 09:41:00,13.1,9.4,29.77,NNW,338,0.0,0.0,85,0.00,,,0.00,0.00,VWS V14.01,2013-02-03 14:41:00,
2013-02-03 09:46:00,13.3,9.6,29.76,NNW,338,0.0,0.0,85,0.00,,,0.00,0.00,VWS V14.01,2013-02-03 14:46:00,
2013-02-03 09:51:00,13.3,9.6,29.76,NE,51,0.0,0.0,85,0.00,,,0.00,0.00,VWS V14.01,2013-02-03 14:51:00,
2013-02-03 09:56:00,13.3,9.6,29.76,West,281,0.0,0.0,85,0.00,,,0.00,5.00,VWS V14.01,2013-02-03 14:56:00,
2013-02-03 10:00:00,12.8,9.1,29.77,WSW,255,0.0,0.0,85,0.00,,OVC017,0.00,0.00,VWS V14.01,2013-02-03 15:00:00,
2013-02-03 10:01:00,13.5,9.8,29.76,West,281,0.0,0.0,85,0.00,,,0.00,7.00,VWS V14.01,2013-02-03 15:01:00,
2013-02-03 10:06:00,13.6,9.9,29.76,SSW,211,0.0,0.0,85,0.00,,,0.00,7.00,VWS V14.01,2013-02-03 15:06:00,
2013-02-03 10:11:00,13.8,10.1,29.76,West,263,0.0,0.0,85,0.00,,,0.00,7.00,VWS V14.01,2013-02-03 15:11:00,
2013-02-03 10:16:00,14.0,10.3,29.76,West,259,0.0,0.0,85,0.00,,,0.00,7.00,VWS V14.01,2013-02-03 15:16:00,
2013-02-03 10:21:00,14.3,10.6,29.76,West,259,0.0,0.0,85,0.00,,,0.00,7.00,VWS V14.01,2013-02-03 15:21:00,
2013-02-03 10:26:00,14.4,10.7,29.76,SW,234,0.0,0.0,85,0.00,,,0.00,7.00,VWS V14.01,2013-02-03 15:26:00,
2013-02-03 10:30:00,13.3,9.6,29.76,NNW,338,0.0,0.0,85,0.00,,OVC017,0.00,0.00,VWS V14.01,2013-02-03 15:30:00,
2013-02-03 10:31:00,14.6,10.9,29.76,North,355,0.0,0.0,85,0.00,,,0.00,7.00,VWS V14.01,2013-02-03 15:31:00,
2013-02-03 10:36:00,14.8,11.1,29.76,North,355,0.0,0.0,85,0.00,,,0.00,7.00,VWS V14.01,2013-02-03 15:36:00,
2013-02-03 10:41:00,14.9,11.2,29.76,WNW,296,0.0,0.0,85,0.00,,,0.00,9.00,VWS V14.01,2013-02-03 15:41:00,
2013-02-03 10:46:00,15.1,11.4,29.76,WNW,287,0.0,0.0,85,0.00,,,0.00,9.00,VWS V14.01,2013-02-03 15:46:00,
2013-02-03 10:51:00,15.2,11.5,29.76,NNW,336,0.0,0.0,85,0.00,,,0.00,9.00,VWS V14.01,2013-02-03 15:51:00,
2013-02-03 10:56:00,15.4,11.7,29.76,SW,231,0.0,0.0,85,0.00,,,0.00,9.00,VWS V14.01,2013-02-03 15:56:00,
2013-02-03 11:00:00,14.0,10.3,29.76,West,259,0.0,0.0,85,0.00,,OVC017,0.00,7.00,VWS V14.01,2013-02-03 16:00:00,
2013-02-03 11:01:00,15.6,11.9,29.77,West,281,0.0,0.0,85,0.00,,,0.00,9.00,VWS V14.01,2013-02-03 16:01:00,
2013-02-03 11:06:00,15.7,12.0,29.77,SW,235,0.0,0.0,85,0.00,,,0.00,11.00,VWS V14.01,2013-02-03 16:06:00,
2013-02-03 11:11:00,15.9,12.2,29.77,NW,318,0.0,0.0,85,0.00,,,0.00,11.00,VWS V14.01,2013-02-03 16:11:00,
2013-02-03 11:16:00,16.1,12.4,29.76,SSW,199,0.0,0.0,85,0.00,,,0.00,11.00,VWS V14.01,2013-02-03 16:16:00,
2013-02-03 11:21:00,16.4,12.7,29.76,WSW,243,0.0,0.0,85,0.00,,,0.00,12.00,VWS V14.01,2013-02-03 16:21:00,
2013-02-03 11:26:00,16.5,12.8,29.76,WNW,296,0.0,0.0,85,0.00,,,0.00,12.00,VWS V14.01,2013-02-03 16:26:00,
2013-02-03 11:30:00,15.1,11.4,29.76,WNW,287,0.0,0.0,85,0.00,,OVC017,0.00,9.00,VWS V14.01,2013-02-03 16:30:00,
2013-02-03 11:31:00,16.9,13.2,29.76,SW,223,0.0,0.0,85,0.00,,,0.00,12.00,VWS V14.01,2013-02-03 16:31:00,
2013-02-03 11:36:00,17.2,13.5,29.76,ENE,60,0.0,0.0,85,0.00,,,0.00,12.00,VWS V14.01,2013-02-03 16:36:00,
2013-02-03 11:41:00,17.5,13.8,29.76,SW,227,0.0,0.0,85,0.00,,,0.00,11.00,VWS V14.01,2013-02-03 16:41:00,
2013-02-03 11:46:00,17.7,14.0,29.76,West,278,0.0,0.0,85,0.00,,,0.00,12.00,VWS V14.01,2013-02-03 16:46:00,
2013-02-03 11:51:00,18.0,14.3,29.76,WSW,256,0.0,0.0,85,0.00,,,0.00,14.00,VWS V14.01,2013-02-03 16:51:00,
2013-02-03 11:56:00,18.3,14.6,29.76,WSW,254,0.0,0.0,85,0.00,,,0.00,14.00,VWS V14.01,2013-02-03 16:56:00,
2013-02-03 12:00:00,16.1,12.4,29.76,SSW,199,0.0,0.0,85,0.00,,OVC017,0.00,11.00,VWS V14.01,2013-02-03 17:00:00,
2013-02-03 12:01:00,18.6,14.9,29.76,ENE,65,0.0,0.0,85,0.00,,,0.00,12.00,VWS V14.01,2013-02-03 17:01:00,
2013-02-03 12:06:00,19.1,15.3,29.76,NE,55,0.0,0.0,85,0.00,,,0.00,18.00,VWS V14.01,2013-02-03 17:06:00,
2013-02-03 12:11:00,19.4,15.6,29.76,WSW,242,0.0,0.0,85,0.00,,,0.00,14.00,VWS V14.01,2013-02-03 17:11:00,
2013-02-03 12:16:00,19.7,15.9,29.76,NNW,327,0.0,0.0,85,0.00,,,0.00,18.00,VWS V14.01,2013-02-03 17:16:00,
2013-02-03 12:21:00,20.0,16.2,29.76,West,269,0.0,0.0,85,0.00,,,0.00,16.00,VWS V14.01,2013-02-03 17:21:00,
2013-02-03 12:26:00,20.2,16.4,29.76,West,267,0.0,0.0,85,0.00,,,0.00,12.00,VWS V14.01,2013-02-03 17:26:00,
2013-02-03 12:30:00,17.7,14.0,29.76,West,278,0.0,0.0,85,0.00,,OVC017,0.00,12.00,VWS V14.01,2013-02-03 17:30:00,
2013-02-03 12:31:00,20.3,16.5,29.75,West,271,0.0,0.0,85,0.00,,,0.00,12.00,VWS V14.01,2013-02-03 17:31:00,
2013-02-03 12:36:00,20.5,16.7,29.75,West,279,0.0,0.0,85,0.00,,,0.00,14.00,VWS V14.01,2013-02-03 17:36:00,
2013-02-03 12:41:00,20.6,16.8,29.75,East,87,0.0,0.0,85,0.00,,,0.00,14.00,VWS V14.01,2013-02-03 17:41:00,
2013-02-03 12:46:00,20.8,17.0,29.75,WSW,244,0.0,0.0,85,0.00,,,0.00,14.00,VWS V14.01,2013-02-03 17:46:00,
2013-02-03 12:51:00,21.0,17.2,29.75,NNW,327,0.0,0.0,85,0.00,,,0.00,16.00,VWS V14.01,2013-02-03 17:51:00,
2013-02-03 12:56:00,21.3,17.5,29.75,SSW,213,0.0,0.0,85,0.00,,,0.00,16.00,VWS V14.01,2013-02-03 17:56:00,
2013-02-03 13:00:00,19.7,15.9,29.76,SSW,196,0.0,0.0,85,0.00,,OVC017,0.00,18.00,VWS V14.01,2013-02-03 18:00:00,
2013-02-03 13:01:00,21.4,17.6,29.75,SW,219,0.0,0.0,85,0.00,,,0.00,14.00,VWS V14.01,2013-02-03 18:01:00,
2013-02-03 13:06:00,21.8,18.0,29.75,WSW,258,0.0,0.0,85,0.00,,,0.00,12.00,VWS V14.01,2013-02-03 18:06:00,
2013-02-03 13:11:00,21.9,18.1,29.75,West,270,0.0,0.0,85,0.00,,,0.00,12.00,VWS V14.01,2013-02-03 18:11:00,
2013-02-03 13:16:00,22.1,18.3,29.75,NW,306,0.0,0.0,85,0.00,,,0.00,9.00,VWS V14.01,2013-02-03 18:16:00,
2013-02-03 13:21:00,22.2,18.4,29.75,WNW,295,0.0,0.0,85,0.00,,,0.00,11.00,VWS V14.01,2013-02-03 18:21:00,
2013-02-03 13:26:00,22.4,18.6,29.75,NNW,332,0.0,0.0,85,0.00,,,0.00,12.00,VWS V14.01,2013-02-03 18:26:00,
2013-02-03 13:30:00,20.8,17.0,29.75,WSW,244,0.0,0.0,85,0.00,,OVC017,0.00,14.00,VWS V14.01,2013-02-03 18:30:00,
2013-02-03 13:31:00,22.5,18.7,29.74,West,267,0.0,0.0,85,0.00,,,0.00,11.00,VWS V14.01,2013-02-03 18:31:00,
2013-02-03 13:36:00,22.7,18.9,29.74,SSW,192,0.0,0.0,85,0.00,,,0.00,11.00,VWS V14.01,2013-02-03 18:36:00,
2013-02-03 13:41:00,22.7,18.9,29.74,WSW,255,0.0,0.0,85,0.00,,,0.00,9.00,VWS V14.01,2013-02-03 18:41:00,
2013-02-03 13:46:00,22.9,19.1,29.74,West,259,0.0,0.0,85,0.00,,,0.00,11.00,VWS V14.01,2013-02-03 18:46:00,
2013-02-03 13:51:00,23.0,19.2,29.74,West,259,0.0,0.0,85,0.00,,,0.00,11.00,VWS V14.01,2013-02-03 18:51:00,
2013-02-03 13:56:00,23.3,19.5,29.74,ESE,109,0.0,0.0,85,0.00,,,0.00,7.00,VWS V14.01,2013-02-03 18:56:00,
2013-02-03 14:00:00,22.1,18.3,29.75,NNW,336,0.0,0.0,85,0.00,,OVC017,0.00,9.00,VWS V14.01,2013-02-03 19:00:00,
2013-02-03 14:01:00,23.3,19.5,29.74,SW,232,0.0,0.0,85,0.00,,,0.00,5.00,VWS V14.01,2013-02-03 19:01:00,
2013-02-03 14:06:00,23.3,19.5,29.74,WSW,247,0.0,0.0,85,0.00,,,0.00,5.00,VWS V14.01,2013-02-03 19:06:00,
2013-02-03 14:11:00,23.3,19.5,29.74,NNW,335,0.0,0.0,85,0.00,,,0.00,5.00,VWS V14.01,2013-02-03 19:11:00,
2013-02-03 14:16:00,23.3,19.5,29.75,SW,221,0.0,0.0,85,0.00,,,0.00,5.00,VWS V14.01,2013-02-03 19:16:00,
2013-02-03 14:21:00,23.2,19.4,29.75,WSW,252,3.0,0.0,85,0.00,,,0.00,9.00,VWS V14.01,2013-02-03 19:21:00,
2013-02-03 14:26:00,22.9,18.8,29.75,West,267,0.0,0.0,84,0.00,,,0.00,11.00,VWS V14.01,2013-02-03 19:26:00,
2013-02-03 14:30:00,22.9,19.1,29.74,West,259,0.0,0.0,85,0.00,,OVC017,0.00,11.00,VWS V14.01,2013-02-03 19:30:00,
2013-02-03 14:31:00,22.9,18.8,29.75,NW,325,0.0,0.0,84,0.00,,,0.00,11.00,VWS V14.01,2013-02-03 19:31:00,
2013-02-03 14:36:00,22.9,18.8,29.75,NW,308,0.0,0.0,84,0.00,,,0.00,9.00,VWS V14.01,2013-02-03 19:36:00,
2013-02-03 14:40:00,23.0,18.9,29.75,NW,311,0.0,0.0,84,0.00,,,0.00,9.00,VWS V14.01,2013-02-03 19:40:00,
2013-02-03 14:45:00,23.2,19.1,29.76,NW,311,0.0,0.0,84,0.00,,,0.00,7.00,VWS V14.01,2013-02-03 19:45:00,
2013-02-03 14:50:00,23.2,19.1,29.76,West,279,0.0,0.0,84,0.00,,,0.00,7.00,VWS V14.01,2013-02-03 19:50:00,
2013-02-03 14:55:00,23.0,18.9,29.76,WSW,242,5.0,0.0,84,0.00,,,0.00,5.00,VWS V14.01,2013-02-03 19:55:00,
2013-02-03 15:00:00,23.0,18.9,29.76,WNW,296,0.0,0.0,84,0.00,,,0.00,7.00,VWS V14.01,2013-02-03 20:00:00,
2013-02-03 15:05:00,22.9,18.8,29.76,WSW,246,0.0,0.0,84,0.00,,,0.00,5.00,VWS V14.01,2013-02-03 20:05:00,
2013-02-03 15:10:00,22.9,18.8,29.76,West,271,0.0,0.0,84,0.00,,,0.00,5.00,VWS V14.01,2013-02-03 20:10:00,
2013-02-03 15:15:00,22.7,18.6,29.77,West,268,0.0,0.0,84,0.00,,,0.00,5.00,VWS V14.01,2013-02-03 20:15:00,
2013-02-03 15:20:00,22.5,18.1,29.77,NW,304,0.0,0.0,83,0.00,,,0.00,5.00,VWS V14.01,2013-02-03 20:20:00,
2013-02-03 15:25:00,22.2,17.8,29.77,ESE,104,0.0,0.0,83,0.00,,,0.00,5.00,VWS V14.01,2013-02-03 20:25:00,
2013-02-03 15:30:00,22.1,17.7,29.79,West,261,0.0,0.0,83,0.00,,,0.00,5.00,VWS V14.01,2013-02-03 20:30:00,
2013-02-03 15:35:00,21.9,17.5,29.79,NW,325,0.0,0.0,83,0.00,,,0.00,11.00,VWS V14.01,2013-02-03 20:35:00,
2013-02-03 15:40:00,21.9,17.5,29.79,NW,325,0.0,0.0,83,0.00,,,0.00,9.00,VWS V14.01,2013-02-03 20:40:00,
2013-02-03 15:45:00,22.1,17.7,29.79,WNW,283,0.0,0.0,83,0.00,,,0.00,9.00,VWS V14.01,2013-02-03 20:45:00,
2013-02-03 15:50:00,22.2,17.8,29.79,NW,316,0.0,0.0,83,0.00,,,0.00,5.00,VWS V14.01,2013-02-03 20:50:00,
2013-02-03 15:55:00,22.2,17.8,29.79,NNW,330,0.0,0.0,83,0.00,,,0.00,7.00,VWS V14.01,2013-02-03 20:55:00,
2013-02-03 16:00:00,22.2,17.8,29.79,WSW,254,0.0,0.0,83,0.00,,,0.00,7.00,VWS V14.01,2013-02-03 21:00:00,
2013-02-03 16:05:00,22.2,17.8,29.79,WNW,294,0.0,0.0,83,0.00,,,0.00,5.00,VWS V14.01,2013-02-03 21:05:00,
2013-02-03 16:10:00,22.1,17.7,29.79,West,261,0.0,0.0,83,0.00,,,0.00,5.00,VWS V14.01,2013-02-03 21:10:00,
2013-02-03 16:15:00,22.1,17.7,29.79,North,355,0.0,0.0,83,0.00,,,0.00,7.00,VWS V14.01,2013-02-03 21:15:00,
2013-02-03 16:20:00,22.1,17.7,29.79,West,259,0.0,0.0,83,0.00,,,0.00,7.00,VWS V14.01,2013-02-03 21:20:00,
2013-02-03 16:25:00,22.1,17.5,29.79,NNW,342,1.0,0.0,82,0.00,,,0.00,5.00,VWS V14.01,2013-02-03 21:25:00,
2013-02-03 16:30:00,21.9,17.3,29.80,West,273,0.0,0.0,82,0.00,,,0.00,0.00,VWS V14.01,2013-02-03 21:30:00,
2013-02-03 16:35:00,21.9,17.3,29.80,SE,132,1.0,0.0,82,0.00,,,0.00,0.00,VWS V14.01,2013-02-03 21:35:00,
2013-02-03 16:40:00,21.8,17.2,29.80,NW,324,0.0,0.0,82,0.00,,,0.00,0.00,VWS V14.01,2013-02-03 21:40:00,
2013-02-03 16:45:00,21.6,17.0,29.81,NNW,329,0.0,0.0,82,0.00,,,0.00,0.00,VWS V14.01,2013-02-03 21:45:00,
2013-02-03 16:50:00,21.4,16.8,29.81,NNW,329,0.0,0.0,82,0.00,,,0.00,0.00,VWS V14.01,2013-02-03 21:50:00,
2013-02-03 16:55:00,21.3,16.7,29.81,WNW,292,0.0,0.0,82,0.00,,,0.00,0.00,VWS V14.01,2013-02-03 21:55:00,
2013-02-03 17:00:00,21.3,16.7,29.81,WNW,292,0.0,0.0,82,0.00,,,0.00,0.00,VWS V14.01,2013-02-03 22:00:00,
2013-02-03 17:05:00,21.1,16.5,29.81,WNW,292,0.0,0.0,82,0.00,,,0.00,0.00,VWS V14.01,2013-02-03 22:05:00,
2013-02-03 17:10:00,21.0,16.4,29.81,WNW,285,0.0,0.0,82,0.00,,OVC027,0.00,0.00,VWS V14.01,2013-02-03 22:10:00,
2013-02-03 17:15:00,21.0,16.4,29.81,North,11,0.0,0.0,82,0.00,,OVC027,0.00,0.00,VWS V14.01,2013-02-03 22:15:00,
2013-02-03 17:20:00,20.8,15.9,29.81,NW,325,0.0,0.0,81,0.00,,OVC027,0.00,0.00,VWS V14.01,2013-02-03 22:20:00,
2013-02-03 17:25:00,20.6,15.7,29.81,WSW,238,0.0,0.0,81,0.00,,OVC027,0.00,0.00,VWS V14.01,2013-02-03 22:25:00,
2013-02-03 17:30:00,20.5,15.6,29.81,WNW,284,0.0,0.0,81,0.00,,OVC027,0.00,0.00,VWS V14.01,2013-02-03 22:30:00,
2013-02-03 17:35:00,20.3,15.4,29.81,SW,234,0.0,0.0,81,0.00,,OVC027,0.00,0.00,VWS V14.01,2013-02-03 22:35:00,
2013-02-03 17:40:00,20.2,15.3,29.81,WSW,238,0.0,0.0,81,0.00,,OVC027,0.00,0.00,VWS V14.01,2013-02-03 22:40:00,
2013-02-03 17:45:00,20.2,15.3,29.81,WSW,238,0.0,0.0,81,0.00,,OVC027,0.00,0.00,VWS V14.01,2013-02-03 22:45:00,
2013-02-03 17:50:00,20.0,15.1,29.81,WSW,238,0.0,0.0,81,0.00,,OVC027,0.00,0.00,VWS V14.01,2013-02-03 22:50:00,
2013-02-03 17:55:00,20.0,15.1,29.81,WSW,237,0.0,0.0,81,0.00,,OVC027,0.00,0.00,VWS V14.01,2013-02-03 22:55:00,
2013-02-03 18:00:00,19.9,15.0,29.81,WSW,249,1.0,0.0,81,0.00,,OVC027,0.00,0.00,VWS V14.01,2013-02-03 23:00:00,
2013-02-03 18:05:00,19.7,14.8,29.81,East,98,0.0,0.0,81,0.00,,OVC027,0.00,0.00,VWS V14.01,2013-02-03 23:05:00,
2013-02-03 18:10:00,19.7,14.8,29.81,East,98,0.0,0.0,81,0.00,,OVC027,0.00,0.00,VWS V14.01,2013-02-03 23:10:00,
2013-02-03 18:15:00,19.5,14.6,29.82,West,277,0.0,0.0,81,0.00,,OVC027,0.00,0.00,VWS V14.01,2013-02-03 23:15:00,
2013-02-03 18:20:00,19.5,14.6,29.82,WNW,289,0.0,0.0,81,0.00,,OVC032,0.00,0.00,VWS V14.01,2013-02-03 23:20:00,
2013-02-03 18:25:00,19.5,14.6,29.82,WNW,288,0.0,0.0,81,0.00,,OVC032,0.00,0.00,VWS V14.01,2013-02-03 23:25:00,
2013-02-03 18:30:00,19.4,14.5,29.82,NW,308,0.0,0.0,81,0.00,,OVC032,0.00,0.00,VWS V14.01,2013-02-03 23:30:00,
2013-02-03 18:35:00,19.4,14.5,29.82,WSW,254,0.0,0.0,81,0.00,,OVC032,0.00,0.00,VWS V14.01,2013-02-03 23:35:00,
2013-02-03 18:40:00,19.4,14.5,29.82,WSW,254,0.0,0.0,81,0.00,,OVC032,0.00,0.00,VWS V14.01,2013-02-03 23:40:00,
2013-02-03 18:45:00,19.2,14.3,29.82,WSW,254,0.0,0.0,81,0.00,,OVC032,0.00,0.00,VWS V14.01,2013-02-03 23:45:00,
2013-02-03 18:50:00,19.2,14.3,29.82,WSW,254,0.0,0.0,81,0.00,,OVC032,0.00,0.00,VWS V14.01,2013-02-03 23:50:00,
2013-02-03 18:55:00,19.2,14.3,29.82,WSW,253,0.0,0.0,81,0.00,,OVC032,0.00,0.00,VWS V14.01,2013-02-03 23:55:00,
2013-02-03 19:00:00,19.2,14.3,29.83,WSW,253,0.0,0.0,81,0.00,,OVC032,0.00,0.00,VWS V14.01,2013-02-04 00:00:00,
2013-02-03 19:05:00,19.2,14.3,29.83,West,276,0.0,0.0,81,0.00,,OVC032,0.00,0.00,VWS V14.01,2013-02-04 00:05:00,
2013-02-03 19:10:00,19.2,14.6,29.83,West,276,0.0,0.0,82,0.00,,OVC032,0.00,0.00,VWS V14.01,2013-02-04 00:10:00,
2013-02-03 19:15:00,19.2,14.6,29.83,West,276,0.0,0.0,82,0.00,,OVC032,0.00,0.00,VWS V14.01,2013-02-04 00:15:00,
2013-02-03 19:20:00,19.1,14.5,29.83,West,276,0.0,0.0,82,0.00,,OVC032,0.00,0.00,VWS V14.01,2013-02-04 00:20:00,
2013-02-03 19:25:00,19.1,14.5,29.83,West,273,0.0,0.0,82,0.00,,OVC032,0.00,0.00,VWS V14.01,2013-02-04 00:25:00,
2013-02-03 19:30:00,19.1,14.5,29.83,West,273,0.0,0.0,82,0.00,,OVC032,0.00,0.00,VWS V14.01,2013-02-04 00:30:00,
2013-02-03 19:35:00,19.1,14.5,29.83,West,273,0.0,0.0,82,0.00,,OVC032,0.00,0.00,VWS V14.01,2013-02-04 00:35:00,
2013-02-03 19:40:00,19.1,14.5,29.83,West,273,0.0,0.0,82,0.00,,BKN034,0.00,0.00,VWS V14.01,2013-02-04 00:40:00,
2013-02-03 19:45:00,19.1,14.5,29.83,West,273,0.0,0.0,82,0.00,,BKN034,0.00,0.00,VWS V14.01,2013-02-04 00:45:00,
2013-02-03 19:50:00,18.9,14.3,29.83,West,273,0.0,0.0,82,0.00,,BKN034,0.00,0.00,VWS V14.01,2013-02-04 00:50:00,
2013-02-03 19:55:00,18.9,14.3,29.83,West,273,0.0,0.0,82,0.00,,BKN034,0.00,0.00,VWS V14.01,2013-02-04 00:55:00,
2013-02-03 20:00:00,18.9,14.3,29.83,West,273,0.0,0.0,82,0.00,,BKN034,0.00,0.00,VWS V14.01,2013-02-04 01:00:00,
2013-02-03 20:05:00,18.8,14.2,29.83,West,273,0.0,0.0,82,0.00,,BKN034,0.00,0.00,VWS V14.01,2013-02-04 01:05:00,
2013-02-03 20:10:00,18.8,14.2,29.83,West,273,0.0,0.0,82,0.00,,BKN034,0.00,0.00,VWS V14.01,2013-02-04 01:10:00,
2013-02-03 20:15:00,18.8,14.2,29.83,NW,313,2.0,0.0,82,0.00,,OVC034,0.00,0.00,VWS V14.01,2013-02-04 01:15:00,
2013-02-03 20:20:00,18.8,14.2,29.84,WSW,239,0.0,0.0,82,0.00,,OVC034,0.00,0.00,VWS V14.01,2013-02-04 01:20:00,
2013-02-03 20:25:00,18.6,14.0,29.84,WSW,239,0.0,0.0,82,0.00,,OVC034,0.00,0.00,VWS V14.01,2013-02-04 01:25:00,
2013-02-03 20:30:00,18.6,14.0,29.83,WSW,239,0.0,0.0,82,0.00,,OVC034,0.00,0.00,VWS V14.01,2013-02-04 01:30:00,
2013-02-03 20:35:00,18.6,14.0,29.83,WSW,239,0.0,0.0,82,0.00,,OVC034,0.00,0.00,VWS V14.01,2013-02-04 01:35:00,
2013-02-03 20:40:00,18.6,14.0,29.83,South,181,0.0,0.0,82,0.00,,OVC034,0.00,0.00,VWS V14.01,2013-02-04 01:40:00,
2013-02-03 20:45:00,18.4,13.8,29.84,South,181,0.0,0.0,82,0.00,,OVC034,0.00,0.00,VWS V14.01,2013-02-04 01:45:00,
2013-02-03 20:50:00,18.4,13.8,29.84,South,181,0.0,0.0,82,0.00,,OVC034,0.00,0.00,VWS V14.01,2013-02-04 01:50:00,
2013-02-03 20:55:00,18.4,13.8,29.84,South,181,0.0,0.0,82,0.00,,OVC034,0.00,0.00,VWS V14.01,2013-02-04 01:55:00,
2013-02-03 21:00:00,18.3,13.7,29.84,SW,219,0.0,0.0,82,0.00,,OVC034,0.00,0.00,VWS V14.01,2013-02-04 02:00:00,
2013-02-03 21:05:00,18.1,13.5,29.84,SW,219,0.0,0.0,82,0.00,,OVC034,0.00,0.00,VWS V14.01,2013-02-04 02:05:00,
2013-02-03 21:10:00,18.1,13.5,29.84,SW,219,0.0,0.0,82,0.00,,OVC034,0.00,0.00,VWS V14.01,2013-02-04 02:10:00,
2013-02-03 21:15:00,18.0,13.4,29.84,SW,219,0.0,0.0,82,0.00,,OVC034,0.00,0.00,VWS V14.01,2013-02-04 02:15:00,
2013-02-03 21:20:00,18.0,13.4,29.84,SSW,197,0.0,0.0,82,0.00,,OVC034,0.00,0.00,VWS V14.01,2013-02-04 02:20:00,
2013-02-03 21:25:00,18.0,13.4,29.84,SSW,197,0.0,0.0,82,0.00,,OVC034,0.00,0.00,VWS V14.01,2013-02-04 02:25:00,
2013-02-03 21:30:00,18.0,13.4,29.84,SSW,197,0.0,0.0,82,0.00,,OVC034,0.00,0.00,VWS V14.01,2013-02-04 02:30:00,
2013-02-03 21:35:00,18.0,13.4,29.84,SSW,197,0.0,0.0,82,0.00,,OVC034,0.00,0.00,VWS V14.01,2013-02-04 02:35:00,
2013-02-03 21:40:00,17.8,13.2,29.84,SSW,197,0.0,0.0,82,0.00,,OVC030,0.00,0.00,VWS V14.01,2013-02-04 02:40:00,
2013-02-03 21:45:00,17.8,13.2,29.84,SSW,197,0.0,0.0,82,0.00,,OVC030,0.00,0.00,VWS V14.01,2013-02-04 02:45:00,
2013-02-03 21:50:00,17.8,13.2,29.84,SSW,197,0.0,0.0,82,0.00,,OVC030,0.00,0.00,VWS V14.01,2013-02-04 02:50:00,
2013-02-03 21:55:00,17.8,13.2,29.84,SW,236,0.0,0.0,82,0.00,,OVC030,0.00,0.00,VWS V14.01,2013-02-04 02:55:00,
2013-02-03 22:00:00,17.8,13.2,29.84,West,279,0.0,0.0,82,0.00,,OVC030,0.00,0.00,VWS V14.01,2013-02-04 03:00:00,
2013-02-03 22:05:00,17.8,13.2,29.84,West,279,0.0,0.0,82,0.00,,OVC030,0.00,0.00,VWS V14.01,2013-02-04 03:05:00,
2013-02-03 22:10:00,17.8,13.2,29.84,West,279,0.0,0.0,82,0.00,,OVC030,0.00,0.00,VWS V14.01,2013-02-04 03:10:00,
2013-02-03 22:15:00,17.8,13.2,29.84,West,279,0.0,0.0,82,0.00,,OVC030,0.00,0.00,VWS V14.01,2013-02-04 03:15:00,
2013-02-03 22:20:00,17.8,13.2,29.84,West,279,0.0,0.0,82,0.00,,OVC030,0.00,0.00,VWS V14.01,2013-02-04 03:20:00,
2013-02-03 22:25:00,17.8,13.2,29.84,West,279,0.0,0.0,82,0.00,,OVC030,0.00,0.00,VWS V14.01,2013-02-04 03:25:00,
2013-02-03 22:30:00,17.8,13.2,29.84,West,279,0.0,0.0,82,0.00,,OVC030,0.00,0.00,VWS V14.01,2013-02-04 03:30:00,
2013-02-03 22:35:00,17.7,13.1,29.84,West,279,0.0,0.0,82,0.00,,OVC030,0.00,0.00,VWS V14.01,2013-02-04 03:35:00,
2013-02-03 22:40:00,17.7,13.1,29.84,West,279,0.0,0.0,82,0.00,,OVC030,0.00,0.00,VWS V14.01,2013-02-04 03:40:00,
2013-02-03 22:45:00,17.7,13.1,29.84,West,279,0.0,0.0,82,0.00,,OVC030,0.00,0.00,VWS V14.01,2013-02-04 03:45:00,
2013-02-03 22:50:00,17.7,13.1,29.84,West,279,0.0,0.0,82,0.00,,OVC030,0.00,0.00,VWS V14.01,2013-02-04 03:50:00,
2013-02-03 22:55:00,17.7,13.1,29.84,West,279,0.0,0.0,82,0.00,,OVC030,0.00,0.00,VWS V14.01,2013-02-04 03:55:00,
2013-02-03 23:00:00,17.7,13.1,29.84,West,279,0.0,0.0,82,0.00,,OVC030,0.00,0.00,VWS V14.01,2013-02-04 04:00:00,
2013-02-03 23:05:00,17.5,12.9,29.85,West,279,0.0,0.0,82,0.00,,OVC030,0.00,0.00,VWS V14.01,2013-02-04 04:05:00,
2013-02-03 23:10:00,17.5,12.9,29.85,West,279,0.0,0.0,82,0.00,,OVC030,0.00,0.00,VWS V14.01,2013-02-04 04:10:00,
2013-02-03 23:15:00,17.5,12.9,29.85,West,279,0.0,0.0,82,0.00,,OVC070,0.00,0.00,VWS V14.01,2013-02-04 04:15:00,
2013-02-03 23:20:00,17.5,12.9,29.85,West,279,0.0,0.0,82,0.00,,OVC070,0.00,0.00,VWS V14.01,2013-02-04 04:20:00,
2013-02-03 23:25:00,17.5,12.9,29.85,West,279,0.0,0.0,82,0.00,,OVC070,0.00,0.00,VWS V14.01,2013-02-04 04:25:00,
2013-02-03 23:30:00,17.3,13.0,29.85,West,279,0.0,0.0,83,0.00,,OVC070,0.00,0.00,VWS V14.01,2013-02-04 04:30:00,
2013-02-03 23:35:00,17.3,12.8,29.85,West,279,0.0,0.0,82,0.00,,OVC070,0.00,0.00,VWS V14.01,2013-02-04 04:35:00,
2013-02-03 23:40:00,17.3,13.0,29.85,West,260,0.0,0.0,83,0.00,,OVC070,0.00,0.00,VWS V14.01,2013-02-04 04:40:00,
2013-02-03 23:45:00,17.3,13.0,29.85,West,261,0.0,0.0,83,0.00,,OVC070,0.00,0.00,VWS V14.01,2013-02-04 04:45:00,
2013-02-03 23:50:00,17.3,13.0,29.85,WSW,254,0.0,0.0,83,0.00,,OVC070,0.00,0.00,VWS V14.01,2013-02-04 04:50:00,
2013-02-03 23:55:00,17.3,13.0,29.85,WSW,254,0.0,0.0,83,0.00,,OVC070,0.00,0.00,VWS V14.01,2013-02-04 04:55:00,